Flag for U.S.A. Weather past 2 weeks in Urbana, Illinois, U.S.A.

Now
74 °F

Passing clouds.


Feels Like: 73 °F
Forecast: 58 / 78 °F
Wind: 17 mph from Northeast

Location: University Of Illinois-Willard Airport

Current Time: Jul 23, 2014 at 7:11:19 AM

Latest Report: Jul 23, 2014 at 5:53 AM


Visibility: 8 mi

Pressure: 29.99 "Hg

Humidity: 88%

Dew point: 70 °F

Location of UrbanaLocation

Historic Weather in Urbana — Graph

°F

Urbana temperature yesterday

Maximum temperature yesterday: 83 °F (at 11:53 AM)
Minimum temperature yesterday: 64 °F (at 3:53 AM)
Average temperature yesterday: 73 °F

Past Weeks' High & Low Weather Summary

 TemperatureHumidityPressure
High84 °F (Jul 11, 4:53 PM)100% (Jul 14, 1:57 PM)30.22 "Hg (Jul 14, 1:57 PM)
Low52 °F (Jul 16, 3:53 AM)39% (Jul 10, 1:53 PM)29.69 "Hg (Jul 8, 5:53 AM)
Average70 °F76%30.03 "Hg
* Reported Jul 8 5:53 AM — Jul 23 5:53 AM, Urbana, Weather by CustomWeather, © 2014

Note: Actual official high and low records may vary slightly from our data, if they occured in-between our weather recording intervals... More about our weather records

Advertising

Urbana weather history for previous 24 hours

 ConditionsComfort  
Time TempWeatherWind HumidityBarometerVisibility
5:53 AM
Jul 23
74 °FPassing clouds.17 mph88%29.99 "Hg8 mi
4:53 AM73 °FPassing clouds.5 mph90%29.98 "Hg7 mi
3:53 AM74 °FPassing clouds.6 mph88%29.99 "Hg8 mi
2:53 AM74 °FPassing clouds.3 mph88%29.99 "Hg8 mi
12:53 AM75 °FPassing clouds.7 mph82%30.00 "Hg8 mi
11:53 PM
Jul 22
75 °FPassing clouds.8 mph85%29.99 "Hg7 mi
10:53 PM75 °FClear.8 mph88%30.00 "Hg7 mi
9:53 PM75 °FFog.6 mph90%30.01 "Hg6 mi
8:53 PM76 °FSunny.7 mph88%30.00 "Hg7 mi
7:53 PM80 °FPassing clouds.8 mph76%29.98 "Hg7 mi
6:53 PM81 °FPassing clouds.6 mph74%30.01 "Hg8 mi
11:53 AM83 °FSunny.13 mph65%30.06 "Hg9 mi
10:53 AM82 °FSunny.14 mph65%30.06 "Hg9 mi
9:53 AM79 °FSunny.10 mph69%30.07 "Hg10 mi
8:53 AM75 °FSunny.8 mph79%30.08 "Hg7 mi
7:53 AM70 °FFog.6 mph87%30.09 "Hg5 mi
Weather by CustomWeather, © 2014

See weather overviewHow to use our weather pages